Location: Seattle
(47.6064°N, 122.3308°W)
Time: 05:01:40
(UTC-07:00)

ITUPSAT 1 - Pass Details

Date: 03 April 2023
Orbit: 697 x 710 km, 98.5° (Epoch: 29 May)

Event Time Altitude Azimuth Distance (km) Brightness Sun altitude
Rises 20:56:29 0° 32° (NNE) 3,118 ? -12.8°
Reaches altitude 10° 20:59:58 10° 58° (ENE) 2,190 ? -13.4°
Enters shadow 21:01:23 13° 75° (ENE) 1,990 ? -13.6°
